Regional Weather Roundup
Issued by NWS

Home | Current Version | Previous Version | Graphics & Text | Print | Product List | Glossary On
Versions: 1 2 3 4 5 6 7 8 9 10 11 12 13 14 15 16 17 18 19 20 21 22 23 24 25 26 27
000
ASUS45 KTFX 231710
RWRMT
MONTANA REGIONAL WEATHER ROUNDUP
NATIONAL WEATHER SERVICE GREAT FALLS MT
1100 AM MDT SAT JUL 23 2016

NOTE: "FAIR" INDICATES FEW OR NO CLOUDS BELOW 12000 FEET WITH NO
SIGNIFICANT WEATHER AND/OR OBSTRUCTIONS TO VISIBILITY.

MTZ001>007-043-231800-
WEST OF THE DIVIDE

CITY           SKY/WX    TMP DP  RH WIND       PRES   REMARKS
KALISPELL      MOSUNNY   68  47  46 SE12      30.14F
MISSOULA       MOSUNNY   70  46  42 SE3       30.18F
BUTTE          SUNNY     64  35  34 NW10G20   30.23F
MULLAN PASS    PTSUNNY   51  45  79 CALM      30.27S
ANACONDA         N/A     66  36  32 SW10G20   30.20F
DEER LODGE       N/A     66  39  37 N8G16     30.23S
EUREKA           N/A     70  46  43 E7        30.12F
HAMILTON         N/A     70  39  32 CALM      30.18F
LIBBY            N/A     64  50  59 CALM      30.15F
PLAINS           N/A     67  53  60 CALM      30.15F
RONAN            N/A     70  49  47 SE1       30.20S
$$

MTZ008-052>055-231800-
SOUTHWEST MONTANA

CITY           SKY/WX    TMP DP  RH WIND       PRES   REMARKS
BOZEMAN        SUNNY     68  40  35 E3        30.18F
DILLON         SUNNY     68  40  35 VRB3      30.20F
W YELLOWSTONE  SUNNY     66  28  24 SW10G17   30.27S
ENNIS          SUNNY     68  37  32 CALM      30.25F
THREE FORKS      N/A     71 -36   1 W7        30.14S
TWIN BRIDGES     N/A     68  33  27 E5        30.17F
$$

MTZ009-010-012-014-046-048-049-054-231800-
EAST SLOPES AND CENTRAL MONTANA

CITY           SKY/WX    TMP DP  RH WIND       PRES   REMARKS
CUT BANK       SUNNY     71  41  33 NW13      30.08S
GREAT FALLS    CLOUDY    74  40  29 NW15G23   30.08F
MALMSTROM AFB  SUNNY     73  41  32 W14G23    30.08F
HELENA         SUNNY     73  40  30 W12G20    30.14S
CHOTEAU          N/A     72  39  30 NW13      30.12S
CONRAD           N/A     72  46  39 W7        30.10S
$$

MTZ011-013-016-021-045-047-050-051-231800-
NORTH CENTRAL MONTANA

CITY           SKY/WX    TMP DP  RH WIND       PRES   REMARKS
HAVRE            N/A     74  51  44 MISG      29.96R
LEWISTOWN      SUNNY     71  43  36 NW21G30   30.09R
N BAR RANCH      N/A     68  41  37 NW21G29   30.10S
CHINOOK          N/A     73  50  43 W13       29.95R
$$

MTZ017>020-022>027-061-062-231800-
NORTHEAST MONTANA

CITY           SKY/WX    TMP DP  RH WIND       PRES   REMARKS
GLASGOW        SUNNY     75  48  38 W26G33    29.87S
JORDAN           N/A     77  42  28 W24G39    29.94S
SIDNEY         SUNNY     78  48  34 W21G26    29.86F
WOLF POINT     SUNNY     78  46  32 W23G30    29.87S
PLENTYWOOD       N/A     73  52  46 W21G26    29.82F
POPLAR           N/A     75  46  35 W22G33    29.86S
SCOBEY           N/A     73  54  51 W13       29.85S
$$

MTZ028>42-056>058-231800-
SOUTHCENTRAL AND SOUTHEAST MONTANA

CITY           SKY/WX    TMP DP  RH WIND       PRES   REMARKS
BAKER          SUNNY     78  46  32 NW21G30   29.95R
BILLINGS       MOSUNNY   78  37  22 W18       30.05S
LIVINGSTON     SUNNY     72  38  29 W22G29    30.13F
MILES CITY     SUNNY     80  39  23 W18G26    29.95S
EKALAKA          N/A     77  40  26 NW15      29.97R
FORSYTH          N/A     77  41  27 W8        29.97S
LAUREL           N/A     80  38  22 W20       30.03F
ROUNDUP          N/A     74  38  27 W12       29.96S
$$

REGIONAL REPORTS...DAKOTAS

CITY           SKY/WX    TMP DP  RH WIND       PRES   REMARKS
WILLISTON      SUNNY     79  51  37 W21G29    29.83F
MINOT          CLOUDY    71  65  81 NW6       29.79S
DICKINSON      MOSUNNY   75  57  53 NW18G30   29.86R
BEACH            N/A     77  45  31 W26G35    29.95S
CROSBY           N/A     73  59  60 W12       29.82S
WATFORD CITY     N/A    N/A N/A N/A MISG        N/A
BISMARCK       CLOUDY    72  66  81 E5        29.77F
GRAND FORKS    TSTM      67  63  87 N14       29.78R
FARGO          CLOUDY    80  70  71 SE12      29.71S
BUFFALO SD       N/A     81  42  25 NW33G41   29.85S
RAPID CITY     SUNNY     85  46  25 NW35G45   29.93R
$$

REGIONAL REPORTS...WYOMING/IDAHO/WASHINGTON

CITY           SKY/WX    TMP DP  RH WIND       PRES   REMARKS
GILLETTE       SUNNY     77  41  27 N13       30.06S
SHERIDAN       SUNNY     80  42  25 N15       30.05S
BUFFALO WY     SUNNY     75  40  28 NW7G17    30.11F
CODY           SUNNY     73  45  35 N3        30.12S
YELLOWSTONE LA   N/A     63  26  24 W8G18     30.33F
IDAHO FALLS    SUNNY     71  43  36 SW15      30.20F
SALMON         SUNNY     66  39  37 W3        30.17F
BOISE          SUNNY     69  44  40 NW8       30.19S
SPOKANE        MOSUNNY   65  45  48 SW14      30.19S
$$

REGIONAL REPORTS...ALBERTA

CITY           SKY/WX    TMP DP  RH WIND       PRES   REMARKS
EDMONTON       MOSUNNY   66  48  52 NW13G18   29.92R
CALGARY        MOSUNNY   68  50  52 S5        29.99S
LETHBRIDGE     MOSUNNY   72  48  43 W15G22    30.02F
MEDICINE HAT   PTSUNNY   70  55  60 W16       29.97R
WATERTON GATE    N/A     66  45  45 SW15G23     N/A
CARDSTON         N/A     70  43  37 W9G17       N/A
MILK RIVER       N/A     72  46  40 NW18        N/A
ONEFOUR          N/A     66  52  59 NW25G31     N/A
$$

REGIONAL REPORTS...SASKATCHEWAN

CITY           SKY/WX    TMP DP  RH WIND       PRES   REMARKS
SWIFT CURRENT  CLOUDY    63  57  82 NW15G24   29.84R
REGINA         PTSUNNY   68  61  77 W20       29.72R
SASKATOON      LGT RAIN  64  63  94 N8        29.77R
VAL MARIE        N/A     70  52  52 NW12        N/A
ROCKGLEN         N/A     68  52  56 W16G22      N/A
ASSINIBOIA       N/A     66  55  68 W12G17      N/A
$$




USA.gov is the U.S. government's official web portal to all federal, state and local government web resources and services.